Location: Dyersburg
(36.0438°N, 89.3789°W)
Time: 16:07:37
(UTC+00:00)

Courier 1B Rocket - Visible Passes

Search period start: 21 February 2020 00:00
Search period end: 02 March 2020 00:00
Orbit: 920 x 1202 km, 28.2° (Epoch: 20 February)

Date Brightness Start Highest point End Pass type
(mag) Time Alt. Az. Time Alt. Az. Time Alt. Az.
21 Feb 6.7 09:31:59 26° SE 09:31:59 26° SE 09:35:18 10° ESE visible
21 Feb 6.4 11:18:22 19° WSW 11:21:43 26° SSW 11:27:38 10° SE visible
22 Feb 6.1 10:21:12 31° S 10:21:12 31° S 10:26:57 10° SE visible
22 Feb 7.0 12:09:58 10° WSW 12:13:38 15° SSW 12:17:23 10° S visible
23 Feb 7.0 09:24:05 19° SE 09:24:05 19° SE 09:26:06 10° SE visible
23 Feb 6.6 11:10:28 17° SW 11:12:44 20° SSW 11:17:38 10° SSE visible
24 Feb 6.5 10:13:23 23° S 10:13:23 23° S 10:17:20 10° SSE visible
25 Feb 7.5 09:16:20 12° SE 09:16:20 12° SE 09:16:45 10° SE visible
25 Feb 6.9 11:02:44 13° SW 11:03:43 13° SSW 11:06:48 10° S visible
26 Feb 7.1 10:05:44 14° S 10:05:44 14° S 10:07:17 10° SSE visible
28 Feb 7.1 02:18:41 10° SSW 02:19:30 12° S 02:19:30 12° S visible
29 Feb 6.8 01:19:15 10° S 01:22:02 13° SSE 01:22:34 13° SSE visible
01 Mar 6.5 02:08:46 10° SSW 02:12:01 21° S 02:12:01 21° S visible
